Zurück zum Katalog

CZ-6A DEB

AktivPO
NORAD 61347·DEBRIS·🇨🇳 China

Gestartet Aug 6, 2024 von Taiyuan Satellite Launch Center

Loading…

Nächste Überflüge (nächste 24 Stunden)

TLE

AktuellSource: Space-Track

Epoche: Sep 14, 2026, 03:42 UTC

1 61347U 24140VL  26257.15455908  .00002956  00000-0  79301-3 0  9996
2 61347  89.6564 322.3361 0068489 263.3710  95.9696 14.46607528106721

Verfolge CZ-6A DEB in Echtzeit mit AllMySat

Download on the App Store